Regional Weather Roundup
Issued by NWS Upton, NY

Current Version | Previous Version | Text Only | Print | Product List | Glossary On
Versions: 1 2 3 4 5 6 7 8 9 10 11 12 13 14 15 16 17 18 19 20 21 22 23 24 25 26 27 28 29 30 31 32 33 34 35 36 37 38 39 40 41 42 43 44 45 46 47 48 49 50
837
ASUS41 KOKX 221508
RWROKX

REGIONAL WEATHER ROUNDUP
NATIONAL WEATHER SERVICE NEW YORK NY
1000 AM EST WED NOV 22 2017

NOTE: "FAIR" INDICATES FEW OR NO CLOUDS BELOW 12,000 FEET WITH NO
SIGNIFICANT WEATHER AND/OR OBSTRUCTIONS TO VISIBILITY.

NYZ071-072-176-178-NJZ106-104-221600-
NEW YORK CITY METRO AREA

CITY           SKY/WX    TMP DP  RH WIND       PRES   REMARKS
Central Park   CLOUDY    49  46  90 NW6       29.91F
Bronx Bot Gard   N/A     48  46  93 NW3       29.89F
Bronx Lehman C   N/A     48  32  53 NW6         N/A
LaGuardia APRT CLOUDY    51  48  89 NW10      29.89S
Queens College   N/A     52  32  46 NW8         N/A
Kennedy INTL   CLOUDY    54  52  93 NW10      29.89F
Breezy Point   NOT AVBL
Brooklyn Coll    N/A     52  32  46 NW7         N/A
Staten Island    N/A     48  32  53 NW3         N/A
Newark/Liberty CLOUDY    51  47  86 NE5       29.88F
Teterboro      CLOUDY    49  45  86 E6        29.87F
$$

NYZ177-179-078>081-221600-
LONG ISLAND NEW YORK

CITY           SKY/WX    TMP DP  RH WIND       PRES   REMARKS
Jones Beach    NOT AVBL
Wantagh          N/A     54  32  43 N3          N/A
Matinecock PT  NOT AVBL
Farmingdale    LGT RAIN  55  53  93 NW5       29.89F FOG
MacArthur/ISP  LGT RAIN  55  55 100 NW6       29.88F FOG
Shirley        RAIN      54  54 100 S3        29.89S FOG
Mt Sinai Harb  NOT AVBL
Westhampton    LGT RAIN  54  52  93 SW5       29.90S FOG
East Hampton   LGT RAIN  53  53  99 E3        29.88F
Southold         N/A     54  32  43 S2          N/A
Montauk          N/A     55  55 100 CALM      29.91
$$

NYZ052-065-067-221600-
HUDSON VALLEY

CITY           SKY/WX    TMP DP  RH WIND       PRES   REMARKS
White Plains   CLOUDY    50  48  93 NW12      29.88F
Larchmont Harb NOT AVBL
Croton On Huds NOT AVBL
Somers           N/A     46  32  57 NW2         N/A
Brewster         N/A     43  32  65 S1          N/A
Newburgh       NOT AVBL
Montgomery     CLOUDY    41  39  93 CALM      29.89F
Suffern          N/A     46  32  57 NE2         N/A
Poughkeepsie   LGT RAIN  41  39  93 CALM      29.91S FOG
Albany         LGT RAIN  42  36  79 CALM      29.95R
$$

NJZ001-105-106-008-010-013-015-019>022-104-221600-
NEW JERSEY

CITY           SKY/WX    TMP DP  RH WIND       PRES   REMARKS
Newark/Liberty CLOUDY    51  47  86 NE5       29.88F
Teterboro      CLOUDY    49  45  86 E6        29.87F
Caldwell       CLOUDY    44  44 100 CALM      29.89F
Somerville     CLOUDY    46  45  96 CALM      29.89F
Linden         CLOUDY    47  44  88 CALM      29.88F
Perth Amboy    NOT AVBL
Sussex         CLOUDY    42  42 100 CALM      29.89F
Andover          N/A     44  43  96 CALM      29.91S
Trenton        CLOUDY    48  46  93 NW6       29.91R
Millville      CLOUDY    54  53  97 NW12      29.91R
Atlantic City  CLOUDY    55  54  96 NW10      29.90R
Wrightstown    CLOUDY    53  51  96 NW5       29.88R
Toms River     CLOUDY    54  52  93 NW9       29.91R
Belmar         CLOUDY    53  52  96 W10       29.91R
$$

PAZ047>061-062-071-221600-
EASTERN PENNSYLVANIA

CITY           SKY/WX    TMP DP  RH WIND       PRES   REMARKS
Philadelphia   CLOUDY    53  48  83 W8        29.93R
Allentown      SUNNY     47  40  76 W5        29.92S
Scranton       CLOUDY    42  37  82 N15G26    29.97R
$$

CTZ002-004>006-009-010-012-RIZ004-006-007-MAZ004-011-015-221600-
SOUTHERN NEW ENGLAND
 IN CT

CITY           SKY/WX    TMP DP  RH WIND       PRES   REMARKS
Bradley INTL   LGT RAIN  46  44  93 W6        29.89S
Hartford       LGT RAIN  50  48  93 W6        29.89S FOG
Danbury        LGT RAIN  47  45  93 CALM      29.91F FOG
Wtrbury/Oxford LGT RAIN  46  46 100 W5        29.90S VSB 1
Norwalk Harbor NOT AVBL
Bridgeport     LGT RAIN  53  51  93 W6        29.89S FOG
Meriden        LGT RAIN  47  47 100 W3        29.89S FOG
New Haven      LGT RAIN  52  51  97 CALM      29.89R FOG
Chester        LGT RAIN  54  52  94 CALM      29.88F VSB<1/4
Groton         RAIN      54  53  97 SE5       29.89F FOG
Wilimantic     RAIN      48  46  93 NW3       29.88F FOG

 IN RI

CITY           SKY/WX    TMP DP  RH WIND       PRES   REMARKS
Providence     RAIN      53  53 100 S7        29.93R FOG
Block Island   LGT RAIN  53  53 100 S6        29.91F FOG
Westerly       RAIN      55  55 100 SE6       29.91F FOG
 IN MA

CITY           SKY/WX    TMP DP  RH WIND       PRES   REMARKS
Boston         RAIN      51  50  96 E5        29.91F FOG
Worcester      RAIN      47  46  97 S8        29.87F VSB 1/4
Westfield      LGT RAIN  42  41  96 CALM      29.89R
Provincetown   LGT RAIN  54  53  97 CALM      29.94S FOG
Nantucket      LGT RAIN  55  55 100 S17       29.91F
$$

ANZ330-335-338-340-345-350-353-355-221600-
COASTAL MARINE OBSERVATIONS


STATION/POSITION TIME  SKY/WX   TEMP    WIND        PRES    VSBY  WAVE
                                AIR SEA DIR/SP/G                  HT/PER
                 (UTC)          (F)     (DEG/KT/KT) (MB)    (MI)  (FT/S)
NY HARB ENTRANCE 1350            56 57  240/ 12/ 14 1011.6          3/ 6
20 S FIRE ISLAND 1350            56 57  200/ 14/ 14 1012.2          3/ 6
GREAT SOUTH BAY  NOT AVBL
HUDSON CANYON    1350            56 59  290/  8/ 10 1012.8          5/ 6
KINGS POINT      1430            51 51   50/  5/  6 1013.0
EXECUTION ROCKS  1430            51     330/  4/  6   N/A
WESTERN LI SOUND 1349            51     310/  6/  8   N/A           0
CENTRAL LI SOUND NOT AVBL
ROBBINS REEF     1436            49     330/  6/  8 1012.8
$$


>>>>>>>>>>>>>>>>>>>>>>>>>>>> KEY <<<<<<<<<<<<<<<<<<<<<<<<<<<
>                                                          <
>     SKY/WX - Sky Condition/Present Weather               <
>     TMP    - Temperature in Fahrenheit                   <
>     DP     - Dew Point in Fahrenheit                     <
>     RH     - Relative Humidity in Percent                <
>     WIND   - Direction (from) and Speed in MPH           <
>     PRES   - Mean Sea Level Pressure (inches of Hg)      <
>     WCI    - Wind Chill Index                            <
>     VSB    - VISIBILITY IN MILES                         <
>     HX     - HEAT INDEX                                  <
>     TC     - TEMPERATURE IN CELSIUS                      <
>     VRB    - VARIABLE WIND DIRECTION                     <
>                                                          <
>>>>>>>>>>>>>>>>>>>>>>>>>>>> KEY <<<<<<<<<<<<<<<<<<<<<<<<<<<




USA.gov is the U.S. government's official web portal to all federal, state and local government web resources and services.